[[{"header":{"parameterUnit":"m.s-1","parameterCategory":1,"la1":30.2991,"la2":30.254,"lo1":-89.0895,"lo2":-89.0444,"dy":0.0017,"dx":0.0017,"nx":28,"ny":28,"refTime":"2025-02-24T09:00:00:Z","depth":0,"parameterNumber":2,"parameterNumberName":"U-component_of_WINDS"},"data":[0,0,0,0,0,0,0,0,0,0,0,0,0,0,0,0,0,0,0,0,0,0,0,0,0,0,0,0,0,0,0,0,0,0,0,0,0,0,0,0,0,0,0,0,0,0,0,0,0,0,0,0,0,0,0,0,0,0,-2.8964,-2.8966,0,-2.9184,-2.9187,-2.9189,-2.9165,-2.9162,-2.9158,-2.9155,-2.9381,-2.939,-2.9399,0,0,0,0,0,0,0,0,0,0,0,0,0,-2.852,-2.8528,-2.8963,-2.8966,-2.8969,-2.9184,-2.9187,-2.919,-2.9166,-2.9161,-2.9157,-2.9153,-2.9378,-2.9389,-2.94,0,0,0,0,0,0,0,0,0,0,0,0,0,-2.8724,-2.8531,-2.8963,-2.8983,-2.8987,-2.9183,-2.9187,-2.9191,-2.9167,-2.9161,-2.9156,-2.9151,-2.9374,-2.9388,-2.9402,-2.9593,0,0,-2.9444,-2.945,0,0,0,0,0,0,0,0,-2.8713,-2.874,-2.8977,-2.8982,-2.8987,-2.9142,-2.9114,-2.9326,-2.9168,-2.9098,-2.9155,-2.9149,-2.9306,-2.9325,-2.9378,-2.9603,-2.9613,-2.9445,-2.9454,-2.946,-2.9464,0,0,0,0,0,0,0,-2.8698,-2.8731,-2.9051,-2.8981,-2.8986,-2.898,-2.9004,-2.9154,-2.9229,-2.9104,-2.9103,-2.9129,-2.9307,-2.9364,-2.9383,-2.9616,-2.9445,-2.9457,-2.9466,-2.9471,-3.001,-3.0016,0,0,0,0,0,0,-2.8679,-2.8719,-2.9044,-2.9057,-2.8834,-2.8993,-2.9019,-2.9097,-2.9227,-2.9242,-2.9133,-2.9127,-2.9343,-2.9367,-2.9391,-2.9625,-2.946,-2.9473,-2.9481,-3.0005,-3.0012,-3.0018,0,0,0,0,0,0,-2.867,-2.8709,-2.9035,-2.8888,-2.8929,-2.9006,-2.9094,-2.9104,-2.9162,-2.9249,-2.9263,-2.9178,-2.934,-2.9371,-2.9543,-2.9632,-2.9479,-2.9492,-2.9998,-3.0007,-3.0015,-3.0094,0,0,0,0,0,0,-2.8657,-2.8705,-2.8779,-2.889,-2.8937,-2.9184,-2.91,-2.9112,-2.9186,-2.918,-2.9295,-2.9309,-2.9338,-2.9522,-2.9557,-2.9649,-2.9503,-2.999,-3.0002,-3.0012,-3.0084,-3.0104,-3.0122,0,0,0,0,0,-2.8642,-2.8792,-2.8783,-2.8822,-2.9031,-2.9189,-2.9216,-2.9247,-2.9193,-2.9268,-2.9324,-2.9305,-2.9616,-2.954,-2.9579,-2.9676,-2.9985,-2.9998,-3.0011,-3.0075,-3.01,-3.0121,0,0,0,0,0,0,-2.8691,-2.8807,-2.8798,-2.8989,-2.908,-2.9185,-2.928,-2.9272,-2.938,-2.937,-2.9403,-2.9429,-2.9603,-2.9656,-2.9569,-2.9868,-2.9793,-2.9815,-2.9828,-2.9853,-2.9872,-2.9857,-2.9514,0,0,0,0,0,-2.8723,-2.8842,-2.8937,-2.9097,-2.9142,-2.9204,-2.9274,-2.9289,-2.9384,-2.9422,-2.9491,-2.9583,-2.9702,-2.978,-2.9893,-3.0089,-3.0115,-3.0175,-3.0194,-3.021,-3.023,-3.0339,-3.0367,-3.0062,-3.0062,-3.0062,0,0,-2.8793,-2.8871,-2.8945,-2.9109,-2.918,-2.9303,-2.9236,-2.9368,-2.946,-2.9442,-2.961,-2.9663,-2.9768,-2.9953,-3.0038,-3.0003,-3.0319,-3.0227,-3.0239,-3.025,-3.0355,-3.0384,-3.041,-3.0071,-3.007,-3.0068,0,0,-2.8983,-2.9054,-2.9195,-2.9268,-2.9377,-2.9417,-2.945,-2.9557,-2.9592,-2.976,-2.9749,-2.9857,-3.0061,-3.0137,-3.0202,-3.0419,-3.0407,-3.0455,-3.0557,-3.0663,-3.0687,-3.0708,-3.0788,-3.0816,-3.0473,-3.0474,-3.0474,0,-2.9057,-2.9241,-2.9269,-2.9403,-2.9476,-2.9464,-2.9608,-2.9677,-2.9818,-2.9869,-2.9827,-3.0082,-3.0152,-3.0355,-3.0408,-3.046,-3.0501,-3.0444,-3.0681,-3.0703,-3.0723,-3.08,-3.083,-3.0479,-3.0478,-3.0478,-3.0477,0,-2.9327,-2.9455,-2.9555,-2.9692,-2.9776,-2.9914,-2.9962,-3.0044,-3.0051,-3.0095,-3.0266,-3.0349,-3.048,-3.0528,-3.0537,-3.0734,-3.0709,-3.0673,-3.0599,-3.0757,-3.083,-3.0859,-3.0487,-3.0485,-3.0483,-3.0482,0,0,-2.9558,-2.9707,-2.9744,-2.9806,-2.9924,-3.0024,-3.0161,-3.0289,-3.0359,-3.0455,-3.0572,-3.0743,-3.0712,-3.0786,-3.0802,-3.0894,-3.1064,-3.0848,-3.0851,-3.0888,-3.1288,-3.1316,-3.135,-3.1054,-3.106,-3.1064,-3.128,0,-2.9763,-3.0006,-3.0034,-3.0252,-3.0371,-3.036,-3.048,-3.0565,-3.0609,-3.0716,-3.0764,-3.0886,-3.0833,-3.0878,-3.0969,-3.1024,-3.1145,-3.1008,-3.1165,-3.117,-3.1143,-3.1387,-3.1418,-3.1618,-3.1308,-3.1313,-3.1316,0,-3.0035,-3.014,-3.0369,-3.0471,-3.0522,-3.063,-3.0749,-3.0851,-3.0948,-3.0973,-3.1055,-3.1059,-3.1201,-3.1117,-3.1314,-3.122,-3.1285,-3.1321,-3.133,-3.1349,-3.1256,-3.1416,-3.1682,-3.1713,-3.1361,-3.1357,-3.1354,0,-3.0184,-3.0382,-3.0545,-3.0598,-3.0721,-3.0797,-3.0851,-3.0942,-3.1018,-3.1121,-3.1171,-3.1289,-3.1355,-3.1446,-3.1483,-3.1418,-3.1678,-3.1597,-3.1704,-3.1704,-3.1763,-3.1759,-3.2047,-3.1798,-3.1798,-3.1797,-3.1797,0,-3.0412,-3.0554,-3.0614,-3.0715,-3.0873,-3.0903,-3.1058,-3.1109,-3.119,-3.1301,-3.1297,-3.1401,-3.144,-3.155,-3.1579,-3.1738,-3.1767,-3.1792,-3.1799,-3.1795,-3.1792,-3.1841,-3.183,-3.1805,-3.1804,-3.1802,-3.1801,0,-3.0608,-3.0654,-3.0832,-3.0932,-3.0961,-3.1073,-3.116,-3.1257,-3.1298,-3.1438,-3.1472,-3.1537,-3.1667,-3.171,-3.1867,-3.1886,-3.2072,-3.2065,-3.204,-3.2043,-3.2149,-3.2139,-3.248,-3.2527,-3.2245,-3.2247,-3.2249,0,-3.0753,-3.0862,-3.0974,-3.1048,-3.1105,-3.1224,-3.13,-3.1332,-3.1412,-3.153,-3.1613,-3.1741,-3.1846,-3.2053,-3.2114,-3.2234,-3.2232,-3.2342,-3.225,-3.2243,-3.2237,-3.2232,-3.2244,-3.2361,-3.2364,-3.2367,-3.2369,0,-3.1006,-3.1022,-3.1133,-3.1252,-3.1343,-3.1438,-3.153,-3.1591,-3.1636,-3.1726,-3.1858,-3.1939,-3.2098,-3.2226,-3.2348,-3.2404,-3.2396,-3.2396,-3.2428,-3.2428,-3.241,-3.2424,-3.2092,-3.239,-3.2388,-3.2386,-3.2385,-3.2384,-3.1183,-3.1279,-3.1374,-3.1497,-3.1569,-3.1655,-3.1752,-3.1804,-3.1915,-3.2048,-3.2059,-3.2202,-3.2295,-3.2458,-3.2519,-3.2631,-3.26,-3.2645,-3.2658,-3.2669,-3.2679,-3.2389,-3.2653,-3.2652,-3.2652,-3.2651,-3.2651,0,-3.1439,-3.1498,-3.1611,-3.1739,-3.1836,-3.1817,-3.1917,-3.2,-3.2126,-3.2213,-3.2316,-3.2468,-3.2591,-3.2661,-3.2785,-3.2861,-3.286,-3.2893,-3.289,-3.2903,-3.2698,-3.266,-3.2892,-3.2892,-3.2892,-3.2892,-3.2892,-3.2891,-3.1583,-3.1746,-3.1774,-3.1972,-3.2031,-3.2171,-3.223,-3.2309,-3.2379,-3.2549,-3.2652,-3.2696,-3.2777,-3.2905,-3.3018,-3.3035,-3.3082,-3.3119,-3.3133,-3.2942,-3.2917,-3.2894,-3.2858,-3.3128,-3.3128,-3.3329,-3.3331,-3.3333]},{"header":{"parameterUnit":"m.s-1","parameterCategory":1,"la1":30.2991,"la2":30.254,"lo1":-89.0895,"lo2":-89.0444,"dy":0.0017,"dx":0.0017,"nx":28,"ny":28,"refTime":"2025-02-24T09:00:00:Z","depth":0,"parameterNumber":3,"parameterNumberName":"V-component_of_WINDS"},"data":[0,0,0,0,0,0,0,0,0,0,0,0,0,0,0,0,0,0,0,0,0,0,0,0,0,0,0,0,0,0,0,0,0,0,0,0,0,0,0,0,0,0,0,0,0,0,0,0,0,0,0,0,0,0,0,0,0,0,-5.2655,-5.2653,0,-5.2505,-5.2503,-5.2502,-5.2298,-5.2294,-5.2291,-5.2287,-5.2133,-5.2132,-5.2132,0,0,0,0,0,0,0,0,0,0,0,0,0,-5.2765,-5.2764,-5.2655,-5.2653,-5.2651,-5.2505,-5.2503,-5.2501,-5.2298,-5.2294,-5.229,-5.2286,-5.2134,-5.2133,-5.2131,0,0,0,0,0,0,0,0,0,0,0,0,0,-5.2677,-5.2764,-5.2655,-5.2532,-5.252,-5.2506,-5.2503,-5.2501,-5.2299,-5.2294,-5.2289,-5.2284,-5.2134,-5.2133,-5.2131,-5.2225,0,0,-5.2127,-5.2127,0,0,0,0,0,0,0,0,-5.2682,-5.2673,-5.2552,-5.2541,-5.2527,-5.2415,-5.2485,-5.2408,-5.23,-5.2383,-5.2287,-5.2281,-5.2231,-5.2221,-5.2204,-5.2218,-5.2212,-5.2127,-5.2126,-5.2126,-5.2125,0,0,0,0,0,0,0,-5.2688,-5.2678,-5.2595,-5.2551,-5.2535,-5.2484,-5.2466,-5.247,-5.2338,-5.2375,-5.236,-5.2345,-5.2223,-5.2206,-5.2199,-5.2209,-5.2127,-5.2126,-5.2125,-5.2124,-5.2293,-5.2298,0,0,0,0,0,0,-5.2713,-5.2684,-5.26,-5.2591,-5.2593,-5.2487,-5.2466,-5.2456,-5.2337,-5.2314,-5.235,-5.2336,-5.2211,-5.2201,-5.2193,-5.2295,-5.2126,-5.2124,-5.2123,-5.2288,-5.2294,-5.23,0,0,0,0,0,0,-5.2716,-5.2707,-5.2606,-5.2633,-5.2617,-5.249,-5.248,-5.2456,-5.2438,-5.2318,-5.2293,-5.2357,-5.2207,-5.2195,-5.2219,-5.2287,-5.2124,-5.2122,-5.2281,-5.229,-5.2297,-5.2502,0,0,0,0,0,0,-5.272,-5.2709,-5.2744,-5.2636,-5.2616,-5.2635,-5.2484,-5.2456,-5.2437,-5.2418,-5.2318,-5.2296,-5.2202,-5.2222,-5.2218,-5.2282,-5.2121,-5.2275,-5.2285,-5.2294,-5.2488,-5.2516,-5.2539,0,0,0,0,0,-5.2724,-5.2807,-5.2747,-5.2738,-5.2657,-5.264,-5.2628,-5.2518,-5.2443,-5.2477,-5.2399,-5.23,-5.2281,-5.2226,-5.222,-5.2285,-5.227,-5.2282,-5.2294,-5.2477,-5.251,-5.2538,0,0,0,0,0,0,-5.2926,-5.2791,-5.2722,-5.2772,-5.2719,-5.2605,-5.2644,-5.2557,-5.2524,-5.2507,-5.2372,-5.2351,-5.2392,-5.234,-5.2282,-5.237,-5.226,-5.2272,-5.2402,-5.2433,-5.2458,-5.2469,-5.212,0,0,0,0,0,-5.2977,-5.2974,-5.2856,-5.2912,-5.2889,-5.2772,-5.276,-5.268,-5.2619,-5.2596,-5.2519,-5.2464,-5.2445,-5.2436,-5.2412,-5.248,-5.2455,-5.2522,-5.2547,-5.2569,-5.258,-5.2612,-5.264,-5.2339,-5.2339,-5.2339,0,0,-5.3081,-5.3006,-5.3013,-5.2951,-5.29,-5.2901,-5.2754,-5.2761,-5.276,-5.2596,-5.2614,-5.2557,-5.2486,-5.2533,-5.2549,-5.2491,-5.2658,-5.2584,-5.2602,-5.2601,-5.2627,-5.2656,-5.2681,-5.2347,-5.2345,-5.2344,0,0,-5.327,-5.3214,-5.3254,-5.3207,-5.3132,-5.3054,-5.3065,-5.2964,-5.292,-5.2936,-5.2813,-5.281,-5.2781,-5.2736,-5.2709,-5.2884,-5.2791,-5.288,-5.3012,-5.3046,-5.3069,-5.309,-5.3152,-5.3176,-5.2891,-5.2892,-5.2892,0,-5.3409,-5.3405,-5.3286,-5.3301,-5.3277,-5.313,-5.317,-5.313,-5.3052,-5.3039,-5.2975,-5.2936,-5.2877,-5.2912,-5.2954,-5.2938,-5.2945,-5.289,-5.3075,-5.3095,-5.3112,-5.317,-5.3194,-5.2903,-5.2902,-5.2901,-5.29,0,-5.3579,-5.3579,-5.362,-5.3549,-5.353,-5.3558,-5.3443,-5.3438,-5.336,-5.3289,-5.3308,-5.3233,-5.3192,-5.3194,-5.3118,-5.3218,-5.3184,-5.31,-5.2987,-5.3154,-5.3206,-5.3227,-5.2919,-5.2915,-5.2912,-5.2909,0,0,-5.3891,-5.3755,-5.3772,-5.3738,-5.3645,-5.3643,-5.3664,-5.3624,-5.3623,-5.3574,-5.3588,-5.3568,-5.3489,-5.3459,-5.3377,-5.3406,-5.3549,-5.3317,-5.3314,-5.3363,-5.3655,-5.3719,-5.3747,-5.3487,-5.3491,-5.3494,-5.3661,0,-5.4063,-5.4091,-5.3986,-5.4041,-5.404,-5.39,-5.3919,-5.3864,-5.3799,-5.3788,-5.3714,-5.3702,-5.36,-5.3581,-5.3604,-5.3527,-5.3606,-5.3514,-5.3499,-5.35,-5.3521,-5.3774,-5.3841,-5.4002,-5.3681,-5.3684,-5.3686,0,-5.4267,-5.423,-5.4286,-5.4191,-5.4186,-5.4205,-5.416,-5.4151,-5.4087,-5.4037,-5.4005,-5.3909,-5.3923,-5.3816,-5.3834,-5.3773,-5.3761,-5.3723,-5.3727,-5.3721,-5.3604,-5.3775,-5.4051,-5.4075,-5.3717,-5.3715,-5.3713,0,-5.4489,-5.4453,-5.4482,-5.4457,-5.4347,-5.4364,-5.4319,-5.4249,-5.4232,-5.4193,-5.4181,-5.4144,-5.4125,-5.4098,-5.3996,-5.3927,-5.4026,-5.391,-5.3984,-5.3988,-5.4011,-5.4011,-5.4289,-5.4005,-5.4004,-5.4004,-5.4003,0,-5.4692,-5.4732,-5.458,-5.4598,-5.4639,-5.4517,-5.4561,-5.4502,-5.4441,-5.4445,-5.4323,-5.4329,-5.4193,-5.4184,-5.4104,-5.4131,-5.4123,-5.4083,-5.4061,-5.4094,-5.4099,-5.4084,-5.407,-5.401,-5.4009,-5.4007,-5.4006,0,-5.4946,-5.4847,-5.4869,-5.4763,-5.4738,-5.4773,-5.4682,-5.4694,-5.4621,-5.4628,-5.4623,-5.4508,-5.4492,-5.4387,-5.4346,-5.4292,-5.4349,-5.4305,-5.4371,-5.4356,-5.4437,-5.4431,-5.4715,-5.4746,-5.4443,-5.4446,-5.4449,0,-5.5082,-5.511,-5.5008,-5.5002,-5.4962,-5.4955,-5.4937,-5.4819,-5.4805,-5.4735,-5.4756,-5.473,-5.4702,-5.4682,-5.4596,-5.4564,-5.4518,-5.462,-5.4512,-5.4545,-5.4519,-5.4519,-5.4521,-5.4643,-5.4647,-5.465,-5.4653,0,-5.5334,-5.5284,-5.5263,-5.5226,-5.5209,-5.5174,-5.5131,-5.5134,-5.5003,-5.4994,-5.4976,-5.4956,-5.4915,-5.489,-5.4844,-5.4796,-5.4704,-5.4687,-5.4703,-5.4736,-5.4774,-5.4754,-5.4433,-5.4681,-5.4678,-5.4676,-5.4675,-5.4673,-5.5532,-5.5551,-5.5482,-5.5464,-5.542,-5.5383,-5.539,-5.5318,-5.5301,-5.5259,-5.519,-5.5183,-5.5117,-5.5046,-5.5007,-5.4998,-5.4944,-5.4967,-5.4972,-5.498,-5.4997,-5.4776,-5.4989,-5.4988,-5.4988,-5.4987,-5.4986,0,-5.5778,-5.5727,-5.5712,-5.5656,-5.5643,-5.5557,-5.5505,-5.5499,-5.5494,-5.5441,-5.5417,-5.5397,-5.5373,-5.5285,-5.5252,-5.5263,-5.5219,-5.5258,-5.5256,-5.5246,-5.5047,-5.5037,-5.5294,-5.5294,-5.5294,-5.5294,-5.5293,-5.5293,-5.5904,-5.593,-5.5872,-5.5876,-5.5824,-5.5816,-5.5794,-5.576,-5.5717,-5.57,-5.568,-5.5623,-5.5556,-5.5518,-5.5492,-5.5466,-5.546,-5.5513,-5.5474,-5.529,-5.526,-5.5232,-5.5222,-5.5513,-5.5513,-5.5673,-5.5675,-5.5676]}]]